Powrót do katalogu

HULIANWANG DIGUI-17

AktywnyŁącznośćLEO
NORAD 62977·PAYLOAD·🇨🇳 China

Wystrzelony Feb 11, 2025 z Wenchang Space Launch Site

Loading…

Następne Przeloty (najbliższe 24 godziny)

TLE

ŚwieżeSource: Space-Track

Epoka: Sep 14, 2026, 20:58 UTC

1 62977U 25030G   26257.87426992 -.00000091  00000-0  70335-4 0  9993
2 62977  50.0054 273.9419 0000478  27.2864 332.8033 13.29328302 77795

Śledź HULIANWANG DIGUI-17 w czasie rzeczywistym z AllMySat

Download on the App Store